This demonstration page uses our WeatherBlox Daily Observations layout. Learn more.

Left ArrowRight Arrow

Hourly Observations for October 7, 2022

Temp ( °F °C ) Dew Point ( °F °C ) Humidity (%) Winds ( mph kmh ) Pressure ( in mb ) Visibility ( mi km ) Precip ( " mm )
12:56 am 00:56 Clear 41 5 31 -0.6 67 67 NNE 10 17 30.46 1032 10 16 0.00 0.00
1:56 am 01:56 Mostly Cloudy 43 6.1 30 -1.1 60 60 N 13 20 30.48 1032 10 16 0.00 0.00
2:56 am 02:56 Cloudy with Light Rain 40 4.4 36 2.2 86 86 NNE 15 24 30.50 1033 7 11 0.04 1.02
3:56 am 03:56 Cloudy with Light Rain 40 4.4 37 2.8 89 89 N 10 17 30.52 1033 9 14 0.04 1.02
4:56 am 04:56 Cloudy with Light Rain 40 4.4 37 2.8 89 89 N 9 15 30.53 1034 10 16 0.06 1.52
5:56 am 05:56 Cloudy with Light Rain 40 4.4 37 2.8 89 89 N 7 11 30.53 1034 10 16 0.02 0.51
6:56 am 06:56 Cloudy with Light Rain 40 4.4 36 2.2 86 86 NNE 13 20 30.54 1034 10 16 0.02 0.51
7:56 am 07:56 Cloudy with Light Rain 40 4.4 36 2.2 86 86 N 6 9 30.56 1035 10 16 0.02 0.51
8:56 am 08:56 Cloudy 40 4.4 36 2.2 86 86 NNW 8 13 30.60 1036 10 16 0.01 0.13
9:56 am 09:56 Cloudy 41 5 35 1.7 79 79 N 9 15 30.60 1036 10 16 0.01 0.13
10:56 am 10:56 Cloudy with Light Rain 42 5.6 35 1.7 76 76 NNW 9 15 30.61 1037 10 16 0.01 0.13
11:56 am 11:56 Cloudy 42 5.6 33 0.6 70 70 N 8 13 30.61 1037 10 16 0.01 0.13
12:56 pm 12:56 Cloudy 44 6.7 32 0 62 62 N 5 7 30.60 1036 10 16 0.00 0.00
1:56 pm 13:56 Cloudy 46 7.8 30 -1.1 53 53 N 8 13 30.58 1036 10 16 0.00 0.00
2:56 pm 14:56 Cloudy 46 7.8 30 -1.1 53 53 NW 5 7 30.56 1035 10 16 0.00 0.00
3:56 pm 15:56 Cloudy 47 8.3 30 -1.1 51 51 NNW 7 11 30.54 1034 10 16 0.00 0.00
4:56 pm 16:56 Cloudy 47 8.3 30 -1.1 51 51 WNW 7 11 30.53 1034 10 16 0.00 0.00
5:56 pm 17:56 Cloudy 47 8.3 30 -1.1 51 51 W 6 9 30.51 1033 10 16 0.00 0.00
6:56 pm 18:56 Cloudy 46 7.8 31 -0.6 55 55 WNW 6 9 30.51 1033 10 16 0.00 0.00
7:56 pm 19:56 Mostly Cloudy 46 7.8 31 -0.6 55 55 W 6 9 30.51 1033 10 16 0.00 0.00
8:56 pm 20:56 Cloudy 44 6.7 34 1.1 67 67 NW 5 7 30.52 1033 10 16 0.00 0.00
9:56 pm 21:56 Mostly Cloudy 44 6.7 33 0.6 65 65 WSW 3 6 30.53 1034 10 16 0.00 0.00
10:56 pm 22:56 Cloudy 43 6.1 35 1.7 73 73 WSW 3 6 30.53 1034 10 16 0.00 0.00
11:56 pm 23:56 Cloudy 45 7.2 36 2.2 70 70 W 3 6 30.53 1034 10 16 0.00 0.00

Powered by AerisWeather